Change the Weather History Date:

Friday, July 5, 2013

  Actual Average (KBKW) Record (KBKW)
Temperature  
Mean Temperature 77 °F 71 °F  
Max Temperature 88 °F 80 °F 94 °F (1934)
Min Temperature 66 °F 61 °F 40 °F (1940)
Degree Days  
Heating Degree Days 0 0  
Month to date heating degree days 0  
Since 1 June heating degree days 39  
Since 1 July heating degree days 0  
Cooling Degree Days 12 6  
Month to date cooling degree days 30  
Year to date cooling degree days 182  
Since 1 June cooling degree days 141  
Growing Degree Days 27 (Base 50)    
Moisture  
Dew Point 70 °F    
Average Humidity 85    
Maximum Humidity 100    
Minimum Humidity 53    
Precipitation  
Precipitation 0.00 in 0.15 in 2.30 in (2009)
Month to date precipitation 0.75  
Year to date precipitation 21.91  
Snow  
Snow 0.00 in - - ()
Month to date snowfall  
Since 1 September snowfall  
Snow Depth -    
Sea Level Pressure  
Sea Level Pressure 30.27 in    
Wind  
Wind Speed - (North)    
Max Wind Speed -    
Max Gust Speed -    
Visibility 9 miles    
Events Rain    
T = Trace of Precipitation, MM = Missing Value Source: NWS Daily Summary

Daily Weather History Graph

Daily Weather History Graph

Search for Another Location

Airport or City:

Trip Planner

Search our weather history database for the weather conditions in past years. The results will help you decide how hot, cold, wet, or windy it might be!

Date:

Astronomy

Jul. 05, 2013 Rise Set
Actual Time 6:10 AM EDT 8:50 PM EDT
Civil Twilight 5:39 AM EDT 9:21 PM EDT
Nautical Twilight 5:01 AM EDT 10:00 PM EDT
Astronomical Twilight 4:17 AM EDT 10:43 PM EDT
Moon 4:07 AM EDT (7/5) 6:45 PM EDT (7/5)
Length of Visible Light 15h 42m
Length of Day
14h 40m
Waning Crescent, 6% of the Moon is Illuminated
Jul 5
Waning Crescent
Jul 8
New
Jul 15
First Quarter
Jul 22
Full
Jul 29
Last Quarter

Hourly Weather History & Observations

Time (EDT) Temp. Heat Index Dew Point Humidity Pressure Visibility Wind Dir Wind Speed Gust Speed Precip Events Conditions
12:15 AM 69.8 °F - 69.8 °F 100% 30.28 in 7.0 mi North - - N/A Rain Light Rain
12:35 AM 69.4 °F - 69.4 °F 100% 30.27 in 7.0 mi North - - N/A   Scattered Clouds
12:55 AM 69.1 °F - 69.1 °F 100% 30.27 in 7.0 mi North - - N/A   Scattered Clouds
1:15 AM 68.9 °F - 68.9 °F 100% 30.26 in 7.0 mi North - - N/A   Scattered Clouds
1:35 AM 68.9 °F - 68.9 °F 100% 30.26 in 7.0 mi North - - N/A   Scattered Clouds
1:55 AM 69.1 °F - 69.1 °F 100% 30.27 in 7.0 mi North - - N/A   Mostly Cloudy
2:15 AM 68.9 °F - 68.9 °F 100% 30.27 in 7.0 mi North - - N/A   Scattered Clouds
2:35 AM 68.4 °F - 68.4 °F 100% 30.26 in 5.0 mi North - - N/A   Scattered Clouds
2:55 AM 68.0 °F - 68.0 °F 100% 30.26 in 5.0 mi North - - N/A   Scattered Clouds
3:15 AM 67.6 °F - 67.6 °F 100% 30.26 in 5.0 mi North - - N/A   Clear
3:35 AM 67.3 °F - 67.3 °F 100% 30.25 in 7.0 mi North - - N/A   Scattered Clouds
3:55 AM 67.3 °F - 67.3 °F 100% 30.25 in 7.0 mi North - - N/A   Clear
4:15 AM 67.3 °F - 67.3 °F 100% 30.26 in 7.0 mi North - - N/A   Scattered Clouds
4:35 AM 67.1 °F - 67.1 °F 100% 30.26 in 5.0 mi North - - N/A   Scattered Clouds
4:55 AM 67.6 °F - 67.6 °F 100% 30.25 in 7.0 mi North - - N/A   Scattered Clouds
5:15 AM 67.6 °F - 67.6 °F 100% 30.25 in 7.0 mi North - - N/A   Clear
5:35 AM 67.3 °F - 67.3 °F 100% 30.26 in 7.0 mi North - - N/A   Clear
5:55 AM 67.1 °F - 67.1 °F 100% 30.25 in 7.0 mi North - - N/A   Clear
6:15 AM 66.6 °F - 66.6 °F 100% 30.26 in 7.0 mi North - - N/A   Clear
6:35 AM 66.7 °F - 66.7 °F 100% 30.26 in 5.0 mi North - - N/A   Clear
6:55 AM 67.1 °F - 67.1 °F 100% 30.26 in 7.0 mi North - - N/A   Clear
7:15 AM 68.0 °F - 68.0 °F 100% 30.26 in 10.0 mi North - - N/A   Clear
7:35 AM 68.9 °F - 68.9 °F 100% 30.28 in 10.0 mi North - - N/A   Clear
7:55 AM 68.9 °F - 68.9 °F 100% 30.28 in 10.0 mi North - - N/A   Clear
8:15 AM 70.2 °F - 70.2 °F 100% 30.29 in 10.0 mi North - - N/A   Clear
8:55 AM 72.7 °F - 69.6 °F 90% 30.29 in 10.0 mi North - - N/A   Clear
9:15 AM 74.3 °F - 70.9 °F 89% 30.30 in 10.0 mi North - - N/A   Clear
9:35 AM 75.2 °F - 70.0 °F 84% 30.30 in 10.0 mi North - - N/A   Clear
9:55 AM 77.0 °F - 70.7 °F 81% 30.29 in 10.0 mi North - - N/A   Scattered Clouds
10:15 AM 77.0 °F - 70.3 °F 80% 30.30 in 10.0 mi North - - N/A   Clear
10:35 AM 76.6 °F - 71.4 °F 84% 30.30 in 10.0 mi North - - N/A   Clear
10:55 AM 77.0 °F - 71.4 °F 83% 30.30 in 10.0 mi North - - N/A   Clear
11:15 AM 78.1 °F - 71.1 °F 79% 30.30 in 10.0 mi North - - N/A   Scattered Clouds
11:35 AM 77.9 °F - 70.7 °F 78% 30.30 in 10.0 mi North - - N/A   Scattered Clouds
11:55 AM 78.6 °F - 70.9 °F 77% 30.30 in 10.0 mi North - - N/A   Scattered Clouds
12:15 PM 79.0 °F - 71.8 °F 78% 30.30 in 10.0 mi North - - N/A   Scattered Clouds
12:35 PM 80.2 °F 84.2 °F 72.1 °F 76% 30.30 in 10.0 mi North - - N/A   Scattered Clouds
12:55 PM 80.4 °F 84.1 °F 71.1 °F 73% 30.30 in 10.0 mi North - - N/A   Scattered Clouds
1:15 PM 82.6 °F 87.3 °F 71.6 °F 69% 30.29 in 10.0 mi North - - N/A   Scattered Clouds
1:35 PM 83.1 °F 88.1 °F 71.4 °F 68% 30.28 in 10.0 mi North - - N/A   Clear
1:55 PM 83.3 °F 88.2 °F 71.4 °F 67% 30.28 in 10.0 mi North - - N/A   Clear
2:15 PM 83.5 °F 88.2 °F 70.9 °F 66% 30.28 in 10.0 mi North - - N/A   Clear
2:35 PM 84.9 °F 90.1 °F 71.2 °F 63% 30.28 in 10.0 mi North - - N/A   Clear
2:55 PM 85.3 °F 90.1 °F 70.3 °F 61% 30.27 in 10.0 mi North - - N/A   Scattered Clouds
3:15 PM 84.6 °F 89.4 °F 70.9 °F 63% 30.26 in 10.0 mi North - - N/A   Scattered Clouds
3:35 PM 86.7 °F 91.7 °F 70.2 °F 58% 30.25 in 10.0 mi North - - N/A   Scattered Clouds
3:55 PM 86.5 °F 91.4 °F 70.2 °F 58% 30.25 in 10.0 mi North - - N/A   Clear
4:15 PM 85.8 °F 89.4 °F 68.7 °F 56% 30.24 in 10.0 mi North - - N/A   Scattered Clouds
4:35 PM 86.9 °F 90.6 °F 68.5 °F 54% 30.23 in 10.0 mi North - - N/A   Clear
4:55 PM 87.8 °F 92.2 °F 69.3 °F 54% 30.23 in 10.0 mi North - - N/A   Clear
5:15 PM 88.0 °F 92.1 °F 68.7 °F 53% 30.23 in 10.0 mi North - - N/A   Clear
5:35 PM 86.5 °F 91.8 °F 70.9 °F 59% 30.22 in 10.0 mi North - - N/A   Clear
5:55 PM 86.0 °F 92.6 °F 72.3 °F 64% 30.22 in 10.0 mi North - - N/A   Clear
6:15 PM 82.6 °F 88.8 °F 73.9 °F 75% 30.22 in 10.0 mi North - - N/A   Scattered Clouds
6:35 PM 83.7 °F 90.4 °F 73.9 °F 72% 30.23 in 10.0 mi North - - N/A   Scattered Clouds
6:55 PM 78.4 °F - 73.9 °F 86% 30.23 in 10.0 mi North - - N/A   Mostly Cloudy
7:15 PM 77.7 °F - 73.4 °F 86% 30.23 in 10.0 mi North - - N/A   Overcast
7:35 PM 79.7 °F - 71.2 °F 75% 30.23 in 10.0 mi North - - N/A   Mostly Cloudy
7:55 PM 79.3 °F - 72.3 °F 79% 30.24 in 10.0 mi North - - N/A   Mostly Cloudy
8:15 PM 77.9 °F - 72.1 °F 82% 30.25 in 10.0 mi North - - N/A   Overcast
8:35 PM 76.8 °F - 73.4 °F 89% 30.26 in 10.0 mi North - - N/A Rain Light Rain
8:55 PM 76.1 °F - 71.8 °F 86% 30.26 in 10.0 mi North - - N/A   Mostly Cloudy
9:15 PM 74.3 °F - 72.1 °F 93% 30.27 in 10.0 mi North - - N/A   Scattered Clouds
9:35 PM 73.6 °F - 71.6 °F 93% 30.28 in 10.0 mi North - - N/A   Scattered Clouds
9:55 PM 73.4 °F - 70.7 °F 91% 30.28 in 10.0 mi North - - N/A   Scattered Clouds
10:15 PM 73.0 °F - 70.7 °F 92% 30.29 in 10.0 mi North - - N/A   Clear
10:35 PM 72.1 °F - 70.2 °F 93% 30.29 in 10.0 mi North - - N/A   Clear
10:55 PM 70.7 °F - 69.8 °F 97% 30.29 in 10.0 mi North - - N/A   Clear
11:15 PM 70.5 °F - 70.0 °F 98% 30.30 in 10.0 mi North - - N/A   Scattered Clouds
11:35 PM 70.0 °F - 69.8 °F 99% 30.30 in 10.0 mi North - - N/A   Scattered Clouds
11:55 PM 70.2 °F - 70.0 °F 99% 30.30 in 10.0 mi North - - N/A   Clear